Time,TemperatureF,DewpointF,PressureIn,WindDirection,WindDirectionDegrees,WindSpeedMPH,WindSpeedGustMPH,Humidity,HourlyPrecipIn,Conditions,Clouds,dailyrainin,SoftwareType,DateUTC
2013-03-08 00:02:00,43.0,31.0,30.21,NNE,24,1.0,-999.0,63,-99.99,,,-99.99,,2013-03-08 05:02:00,
2013-03-08 00:12:00,43.0,31.0,30.21,NNE,24,1.0,-999.0,63,-99.99,,,-99.99,,2013-03-08 05:12:00,
2013-03-08 00:22:00,42.0,31.0,30.21,NNE,24,1.0,-999.0,66,-99.99,,,-99.99,,2013-03-08 05:22:00,
2013-03-08 00:33:00,42.0,31.0,30.21,NNE,24,1.0,-999.0,66,-99.99,,,-99.99,,2013-03-08 05:33:00,
2013-03-08 00:42:00,42.0,31.0,30.21,NNE,24,1.0,-999.0,66,-99.99,,,-99.99,,2013-03-08 05:42:00,
2013-03-08 00:52:00,41.0,31.0,30.21,NNE,24,1.0,-999.0,68,-99.99,,,-99.99,,2013-03-08 05:52:00,
2013-03-08 01:02:00,41.0,32.0,30.21,NNE,24,1.0,-999.0,69,-99.99,,,-99.99,,2013-03-08 06:02:00,
2013-03-08 01:11:00,41.0,32.0,30.21,NNE,24,1.0,-999.0,69,-99.99,,,-99.99,,2013-03-08 06:11:00,
2013-03-08 01:22:00,41.0,32.0,30.21,NNE,23,1.0,-999.0,69,-99.99,,,-99.99,,2013-03-08 06:22:00,
2013-03-08 01:32:00,41.0,31.0,30.22,NNE,17,2.0,-999.0,68,-99.99,,,-99.99,,2013-03-08 06:32:00,
2013-03-08 01:42:00,41.0,31.0,30.22,NNE,17,2.0,-999.0,68,-99.99,,,-99.99,,2013-03-08 06:42:00,
2013-03-08 01:51:00,40.0,30.0,30.22,NNE,14,1.0,-999.0,67,-99.99,,,-99.99,,2013-03-08 06:51:00,
2013-03-08 02:01:00,41.0,31.0,30.22,North,357,2.0,-999.0,66,-99.99,,,-99.99,,2013-03-08 07:01:00,
2013-03-08 02:11:00,41.0,31.0,30.22,North,357,2.0,-999.0,66,-99.99,,,-99.99,,2013-03-08 07:11:00,
2013-03-08 02:22:00,40.0,30.0,30.22,North,357,1.0,-999.0,67,-99.99,,,-99.99,,2013-03-08 07:22:00,
2013-03-08 02:32:00,40.0,30.0,30.22,North,0,3.0,-999.0,66,-99.99,,,-99.99,,2013-03-08 07:32:00,
2013-03-08 02:42:00,40.0,30.0,30.22,North,0,3.0,-999.0,66,-99.99,,,-99.99,,2013-03-08 07:42:00,
2013-03-08 02:51:00,40.0,29.0,30.22,North,357,4.0,-999.0,64,-99.99,,,-99.99,,2013-03-08 07:51:00,
2013-03-08 03:01:00,39.0,28.0,30.21,North,357,1.0,-999.0,65,-99.99,,,-99.99,,2013-03-08 08:01:00,
2013-03-08 03:11:00,39.0,28.0,30.21,North,357,1.0,-999.0,65,-99.99,,,-99.99,,2013-03-08 08:11:00,
2013-03-08 03:22:00,39.0,28.0,30.21,North,357,1.0,-999.0,65,-99.99,,,-99.99,,2013-03-08 08:22:00,
2013-03-08 03:32:00,38.0,27.0,30.21,North,0,1.0,-999.0,65,-99.99,,,-99.99,,2013-03-08 08:32:00,
2013-03-08 03:42:00,38.0,27.0,30.21,North,0,1.0,-999.0,65,-99.99,,,-99.99,,2013-03-08 08:42:00,
2013-03-08 03:52:00,38.0,28.0,30.21,North,0,1.0,-999.0,66,-99.99,,,-99.99,,2013-03-08 08:52:00,
2013-03-08 04:03:00,38.0,28.0,30.21,North,0,0.0,-999.0,66,-99.99,,,-99.99,,2013-03-08 09:03:00,
2013-03-08 04:11:00,38.0,28.0,30.21,North,0,0.0,-999.0,66,-99.99,,,-99.99,,2013-03-08 09:11:00,
2013-03-08 04:21:00,37.0,27.0,30.21,North,0,1.0,-999.0,67,-99.99,,,-99.99,,2013-03-08 09:21:00,
2013-03-08 04:32:00,37.0,27.0,30.22,North,0,1.0,-999.0,68,-99.99,,,-99.99,,2013-03-08 09:32:00,
2013-03-08 04:42:00,37.0,27.0,30.22,North,0,1.0,-999.0,68,-99.99,,,-99.99,,2013-03-08 09:42:00,
2013-03-08 04:52:00,36.0,27.0,30.22,North,0,1.0,-999.0,69,-99.99,,,-99.99,,2013-03-08 09:52:00,
2013-03-08 05:01:00,36.0,27.0,30.23,North,0,0.0,-999.0,70,-99.99,,,-99.99,,2013-03-08 10:01:00,
2013-03-08 05:11:00,36.0,27.0,30.23,North,0,0.0,-999.0,70,-99.99,,,-99.99,,2013-03-08 10:11:00,
2013-03-08 05:21:00,36.0,28.0,30.23,North,0,0.0,-999.0,71,-99.99,,,-99.99,,2013-03-08 10:21:00,
2013-03-08 05:32:00,35.0,27.0,30.23,North,0,1.0,-999.0,71,-99.99,,,-99.99,,2013-03-08 10:32:00,
2013-03-08 05:42:00,35.0,27.0,30.23,North,0,1.0,-999.0,71,-99.99,,,-99.99,,2013-03-08 10:42:00,
2013-03-08 05:52:00,35.0,27.0,30.24,North,0,1.0,-999.0,71,-99.99,,,-99.99,,2013-03-08 10:52:00,
2013-03-08 06:01:00,35.0,27.0,30.24,North,0,1.0,-999.0,72,-99.99,,,-99.99,,2013-03-08 11:01:00,
2013-03-08 06:11:00,35.0,27.0,30.24,North,0,1.0,-999.0,72,-99.99,,,-99.99,,2013-03-08 11:11:00,
2013-03-08 06:21:00,35.0,27.0,30.24,North,359,2.0,-999.0,71,-99.99,,,-99.99,,2013-03-08 11:21:00,
2013-03-08 06:32:00,35.0,27.0,30.24,North,357,1.0,-999.0,71,-99.99,,,-99.99,,2013-03-08 11:32:00,
2013-03-08 06:42:00,35.0,27.0,30.24,North,357,1.0,-999.0,71,-99.99,,,-99.99,,2013-03-08 11:42:00,
2013-03-08 06:52:00,35.0,27.0,30.24,North,357,1.0,-999.0,71,-99.99,,,-99.99,,2013-03-08 11:52:00,
2013-03-08 07:02:00,34.0,26.0,30.24,North,357,1.0,-999.0,72,-99.99,,,-99.99,,2013-03-08 12:02:00,
2013-03-08 07:11:00,34.0,26.0,30.24,North,357,1.0,-999.0,72,-99.99,,,-99.99,,2013-03-08 12:11:00,
2013-03-08 07:22:00,34.0,26.0,30.25,North,359,1.0,-999.0,72,-99.99,,,-99.99,,2013-03-08 12:22:00,
2013-03-08 07:32:00,35.0,27.0,30.25,North,356,1.0,-999.0,71,-99.99,,,-99.99,,2013-03-08 12:32:00,
2013-03-08 07:43:00,35.0,27.0,30.25,North,356,1.0,-999.0,71,-99.99,,,-99.99,,2013-03-08 12:43:00,
2013-03-08 07:53:00,36.0,27.0,30.25,North,356,1.0,-999.0,70,-99.99,,,-99.99,,2013-03-08 12:53:00,
2013-03-08 08:01:00,37.0,27.0,30.26,North,356,2.0,-999.0,67,-99.99,,,-99.99,,2013-03-08 13:01:00,
2013-03-08 08:11:00,37.0,27.0,30.26,North,356,2.0,-999.0,67,-99.99,,,-99.99,,2013-03-08 13:11:00,
2013-03-08 08:22:00,38.0,27.0,30.26,North,0,3.0,-999.0,63,-99.99,,,-99.99,,2013-03-08 13:22:00,
2013-03-08 08:32:00,40.0,27.0,30.27,North,354,3.0,-999.0,60,-99.99,,,-99.99,,2013-03-08 13:32:00,
2013-03-08 08:42:00,40.0,27.0,30.27,North,354,3.0,-999.0,60,-99.99,,,-99.99,,2013-03-08 13:42:00,
2013-03-08 08:52:00,41.0,27.0,30.27,North,0,4.0,-999.0,57,-99.99,,,-99.99,,2013-03-08 13:52:00,
2013-03-08 09:02:00,42.0,27.0,30.27,North,354,3.0,-999.0,55,-99.99,,,-99.99,,2013-03-08 14:02:00,
2013-03-08 09:11:00,42.0,27.0,30.27,North,354,3.0,-999.0,55,-99.99,,,-99.99,,2013-03-08 14:11:00,
2013-03-08 09:22:00,43.0,27.0,30.27,North,359,4.0,-999.0,52,-99.99,,,-99.99,,2013-03-08 14:22:00,
2013-03-08 09:32:00,44.0,26.0,30.27,NNW,339,5.0,-999.0,49,-99.99,,,-99.99,,2013-03-08 14:32:00,
2013-03-08 09:42:00,44.0,26.0,30.27,NNW,339,5.0,-999.0,49,-99.99,,,-99.99,,2013-03-08 14:42:00,
2013-03-08 09:53:00,46.0,27.0,30.27,North,0,4.0,-999.0,47,-99.99,,,-99.99,,2013-03-08 14:53:00,
2013-03-08 10:03:00,46.0,26.0,30.27,North,357,6.0,-999.0,46,-99.99,,,-99.99,,2013-03-08 15:03:00,
2013-03-08 10:12:00,47.0,26.0,30.27,North,357,5.0,-999.0,44,-99.99,,,-99.99,,2013-03-08 15:12:00,
2013-03-08 10:22:00,47.0,26.0,30.27,North,357,5.0,-999.0,44,-99.99,,,-99.99,,2013-03-08 15:22:00,
2013-03-08 10:32:00,48.0,27.0,30.27,North,0,5.0,-999.0,43,-99.99,,,-99.99,,2013-03-08 15:32:00,
2013-03-08 10:42:00,48.0,27.0,30.27,North,0,5.0,-999.0,43,-99.99,,,-99.99,,2013-03-08 15:42:00,
2013-03-08 10:53:00,48.0,27.0,30.26,NW,326,7.0,-999.0,43,-99.99,,,-99.99,,2013-03-08 15:53:00,
2013-03-08 11:01:00,49.0,27.0,30.25,North,352,4.0,-999.0,42,-99.99,,,-99.99,,2013-03-08 16:01:00,
2013-03-08 11:11:00,49.0,27.0,30.25,North,352,4.0,-999.0,42,-99.99,,,-99.99,,2013-03-08 16:11:00,
2013-03-08 11:22:00,49.0,24.0,30.24,WNW,302,6.0,-999.0,37,-99.99,,,-99.99,,2013-03-08 16:22:00,
2013-03-08 11:32:00,49.0,24.0,30.23,NW,325,5.0,-999.0,37,-99.99,,,-99.99,,2013-03-08 16:32:00,
2013-03-08 11:42:00,49.0,24.0,30.23,NW,325,5.0,-999.0,37,-99.99,,,-99.99,,2013-03-08 16:42:00,
2013-03-08 11:52:00,50.0,24.0,30.22,NW,318,7.0,-999.0,36,-99.99,,,-99.99,,2013-03-08 16:52:00,
2013-03-08 12:03:00,51.0,25.0,30.21,North,11,5.0,-999.0,36,-99.99,,,-99.99,,2013-03-08 17:03:00,
2013-03-08 12:11:00,51.0,25.0,30.21,North,11,5.0,-999.0,36,-99.99,,,-99.99,,2013-03-08 17:11:00,
2013-03-08 12:21:00,52.0,25.0,30.21,NW,313,6.0,-999.0,34,-99.99,,,-99.99,,2013-03-08 17:21:00,
2013-03-08 12:32:00,52.0,25.0,30.20,NW,311,6.0,-999.0,34,-99.99,,,-99.99,,2013-03-08 17:32:00,
2013-03-08 12:42:00,52.0,25.0,30.20,NW,311,6.0,-999.0,34,-99.99,,,-99.99,,2013-03-08 17:42:00,
2013-03-08 12:52:00,53.0,25.0,30.21,NNW,335,5.0,-999.0,33,-99.99,,,-99.99,,2013-03-08 17:52:00,
2013-03-08 13:02:00,53.0,24.0,30.20,NW,306,6.0,-999.0,32,-99.99,,,-99.99,,2013-03-08 18:02:00,
2013-03-08 13:11:00,53.0,24.0,30.20,NW,306,6.0,-999.0,32,-99.99,,,-99.99,,2013-03-08 18:11:00,
2013-03-08 13:21:00,53.0,24.0,30.19,NW,305,7.0,-999.0,32,-99.99,,,-99.99,,2013-03-08 18:21:00,
2013-03-08 13:32:00,54.0,25.0,30.18,NW,304,7.0,-999.0,32,-99.99,,,-99.99,,2013-03-08 18:32:00,
2013-03-08 13:42:00,54.0,25.0,30.18,NW,304,7.0,-999.0,32,-99.99,,,-99.99,,2013-03-08 18:42:00,
2013-03-08 13:52:00,54.0,23.0,30.17,NNW,332,7.0,-999.0,30,-99.99,,,-99.99,,2013-03-08 18:52:00,
2013-03-08 14:01:00,55.0,24.0,30.16,NNW,336,5.0,-999.0,30,-99.99,,,-99.99,,2013-03-08 19:01:00,
2013-03-08 14:11:00,55.0,24.0,30.16,NNW,336,5.0,-999.0,30,-99.99,,,-99.99,,2013-03-08 19:11:00,
2013-03-08 14:22:00,55.0,24.0,30.16,NNW,335,6.0,-999.0,30,-99.99,,,-99.99,,2013-03-08 19:22:00,
2013-03-08 14:32:00,56.0,24.0,30.15,NNW,343,5.0,-999.0,29,-99.99,,,-99.99,,2013-03-08 19:32:00,
2013-03-08 14:42:00,56.0,24.0,30.15,NNW,343,5.0,-999.0,29,-99.99,,,-99.99,,2013-03-08 19:42:00,
2013-03-08 14:52:00,56.0,24.0,30.15,NNW,343,5.0,-999.0,29,-99.99,,,-99.99,,2013-03-08 19:52:00,
2013-03-08 15:01:00,55.0,24.0,30.16,NW,323,6.0,-999.0,30,-99.99,,,-99.99,,2013-03-08 20:01:00,
2013-03-08 15:11:00,55.0,24.0,30.16,NW,323,6.0,-999.0,30,-99.99,,,-99.99,,2013-03-08 20:11:00,
2013-03-08 15:21:00,56.0,23.0,30.16,North,350,7.0,-999.0,28,-99.99,,,-99.99,,2013-03-08 20:21:00,
2013-03-08 15:32:00,56.0,23.0,30.16,NW,326,5.0,-999.0,28,-99.99,,,-99.99,,2013-03-08 20:32:00,
2013-03-08 15:42:00,56.0,23.0,30.16,NW,326,5.0,-999.0,28,-99.99,,,-99.99,,2013-03-08 20:42:00,
2013-03-08 15:53:00,56.0,23.0,30.15,WNW,292,5.0,-999.0,27,-99.99,,,-99.99,,2013-03-08 20:53:00,
2013-03-08 16:02:00,56.0,23.0,30.15,North,357,7.0,-999.0,28,-99.99,,,-99.99,,2013-03-08 21:02:00,
2013-03-08 16:11:00,56.0,23.0,30.15,North,357,7.0,-999.0,28,-99.99,,,-99.99,,2013-03-08 21:11:00,
2013-03-08 16:22:00,56.0,23.0,30.15,North,1,5.0,-999.0,27,-99.99,,,-99.99,,2013-03-08 21:22:00,
2013-03-08 16:32:00,56.0,23.0,30.15,NNW,337,6.0,-999.0,27,-99.99,,,-99.99,,2013-03-08 21:32:00,
2013-03-08 16:42:00,56.0,23.0,30.15,NNW,337,6.0,-999.0,27,-99.99,,,-99.99,,2013-03-08 21:42:00,
2013-03-08 16:52:00,56.0,23.0,30.15,NNW,330,5.0,-999.0,27,-99.99,,,-99.99,,2013-03-08 21:52:00,
2013-03-08 17:01:00,56.0,23.0,30.16,WNW,302,7.0,-999.0,28,-99.99,,,-99.99,,2013-03-08 22:01:00,
2013-03-08 17:11:00,56.0,23.0,30.16,WNW,302,7.0,-999.0,28,-99.99,,,-99.99,,2013-03-08 22:11:00,
2013-03-08 17:22:00,56.0,23.0,30.16,NNW,340,5.0,-999.0,27,-99.99,,,-99.99,,2013-03-08 22:22:00,
2013-03-08 17:32:00,56.0,23.0,30.16,NNW,329,5.0,-999.0,28,-99.99,,,-99.99,,2013-03-08 22:32:00,
2013-03-08 17:42:00,56.0,23.0,30.16,NNW,329,5.0,-999.0,28,-99.99,,,-99.99,,2013-03-08 22:42:00,
2013-03-08 17:53:00,55.0,23.0,30.16,NW,326,4.0,-999.0,29,-99.99,,,-99.99,,2013-03-08 22:53:00,
2013-03-08 18:02:00,55.0,25.0,30.16,NNW,332,3.0,-999.0,31,-99.99,,,-99.99,,2013-03-08 23:02:00,
2013-03-08 18:12:00,55.0,25.0,30.16,NNW,332,3.0,-999.0,31,-99.99,,,-99.99,,2013-03-08 23:12:00,
2013-03-08 18:22:00,54.0,26.0,30.17,NNW,337,2.0,-999.0,33,-99.99,,,-99.99,,2013-03-08 23:22:00,
2013-03-08 18:32:00,54.0,26.0,30.17,NNW,337,2.0,-999.0,33,-99.99,,,-99.99,,2013-03-08 23:32:00,
2013-03-08 18:42:00,54.0,26.0,30.17,NNW,337,2.0,-999.0,33,-99.99,,,-99.99,,2013-03-08 23:42:00,
2013-03-08 18:52:00,53.0,25.0,30.17,NNW,332,2.0,-999.0,34,-99.99,,,-99.99,,2013-03-08 23:52:00,
2013-03-08 19:02:00,52.0,27.0,30.17,NNW,332,0.0,-999.0,38,-99.99,,,-99.99,,2013-03-09 00:02:00,
2013-03-08 19:12:00,52.0,27.0,30.17,NNW,332,0.0,-999.0,38,-99.99,,,-99.99,,2013-03-09 00:12:00,
2013-03-08 19:22:00,52.0,27.0,30.17,NNW,332,0.0,-999.0,38,-99.99,,,-99.99,,2013-03-09 00:22:00,
2013-03-08 19:32:00,50.0,28.0,30.18,NNW,332,0.0,-999.0,43,-99.99,,,-99.99,,2013-03-09 00:32:00,
2013-03-08 19:42:00,50.0,28.0,30.18,NNW,332,0.0,-999.0,43,-99.99,,,-99.99,,2013-03-09 00:42:00,
2013-03-08 19:52:00,49.0,30.0,30.18,NNW,332,0.0,-999.0,48,-99.99,,,-99.99,,2013-03-09 00:52:00,
2013-03-08 20:02:00,48.0,28.0,30.19,NNW,332,0.0,-999.0,46,-99.99,,,-99.99,,2013-03-09 01:02:00,
2013-03-08 20:12:00,47.0,28.0,30.19,NNW,332,0.0,-999.0,47,-99.99,,,-99.99,,2013-03-09 01:12:00,
2013-03-08 20:22:00,47.0,28.0,30.19,NNW,332,0.0,-999.0,47,-99.99,,,-99.99,,2013-03-09 01:22:00,
2013-03-08 20:32:00,47.0,30.0,30.20,NNW,332,0.0,-999.0,52,-99.99,,,-99.99,,2013-03-09 01:32:00,
2013-03-08 20:42:00,47.0,30.0,30.20,NNW,332,0.0,-999.0,52,-99.99,,,-99.99,,2013-03-09 01:42:00,
2013-03-08 20:51:00,46.0,32.0,30.20,NNW,332,0.0,-999.0,57,-99.99,,,-99.99,,2013-03-09 01:51:00,
2013-03-08 21:01:00,44.0,33.0,30.21,NNW,332,0.0,-999.0,64,-99.99,,,-99.99,,2013-03-09 02:01:00,
2013-03-08 21:11:00,44.0,33.0,30.21,NNW,332,0.0,-999.0,64,-99.99,,,-99.99,,2013-03-09 02:11:00,
2013-03-08 21:21:00,43.0,33.0,30.22,NNW,332,0.0,-999.0,67,-99.99,,,-99.99,,2013-03-09 02:21:00,
2013-03-08 21:31:00,43.0,34.0,30.22,NNW,332,0.0,-999.0,69,-99.99,,,-99.99,,2013-03-09 02:31:00,
2013-03-08 21:41:00,42.0,34.0,30.23,NNW,332,0.0,-999.0,72,-99.99,,,-99.99,,2013-03-09 02:41:00,
2013-03-08 21:51:00,42.0,34.0,30.23,NNW,332,0.0,-999.0,72,-99.99,,,-99.99,,2013-03-09 02:51:00,
2013-03-08 22:01:00,42.0,30.0,30.23,NNW,332,0.0,-999.0,61,-99.99,,,-99.99,,2013-03-09 03:01:00,
2013-03-08 22:11:00,42.0,30.0,30.23,NNW,332,0.0,-999.0,61,-99.99,,,-99.99,,2013-03-09 03:11:00,
2013-03-08 22:21:00,42.0,30.0,30.24,NNW,332,0.0,-999.0,61,-99.99,,,-99.99,,2013-03-09 03:21:00,
2013-03-08 22:31:00,43.0,29.0,30.26,NNW,332,0.0,-999.0,58,-99.99,,,-99.99,,2013-03-09 03:31:00,
2013-03-08 22:41:00,43.0,29.0,30.26,NNW,332,0.0,-999.0,58,-99.99,,,-99.99,,2013-03-09 03:41:00,
2013-03-08 22:52:00,43.0,30.0,30.26,NNW,332,0.0,-999.0,60,-99.99,,,-99.99,,2013-03-09 03:52:00,
2013-03-08 23:01:00,42.0,30.0,30.26,NNW,332,0.0,-999.0,61,-99.99,,,-99.99,,2013-03-09 04:01:00,
2013-03-08 23:11:00,42.0,30.0,30.26,NNW,332,0.0,-999.0,61,-99.99,,,-99.99,,2013-03-09 04:11:00,
2013-03-08 23:22:00,43.0,29.0,30.27,NNW,332,1.0,-999.0,58,-99.99,,,-99.99,,2013-03-09 04:22:00,
2013-03-08 23:32:00,43.0,29.0,30.27,NNW,332,0.0,-999.0,58,-99.99,,,-99.99,,2013-03-09 04:32:00,
2013-03-08 23:42:00,43.0,29.0,30.27,NNW,332,0.0,-999.0,58,-99.99,,,-99.99,,2013-03-09 04:42:00,
2013-03-08 23:51:00,43.0,30.0,30.26,NNW,332,0.0,-999.0,59,-99.99,,,-99.99,,2013-03-09 04:51:00,